Satellite: RESURS Catalog number: 25394 Epoch time: 06284.77438031 Element set: 0495 Inclination: 098.4805 deg RA of node: 343.6552 deg Eccentricity: 0.0001202 Arg of perigee: 160.3307 deg Mean anomaly: 199.7919 deg Mean motion: 14.24113972 rev/day Decay rate: 1.3e-07 rev/day^2 Epoch rev: 42899 Checksum: 306
Satellite: FENGYUN1 Catalog number: 25730 Epoch time: 06284.56217759 Element set: 0847 Inclination: 098.6360 deg RA of node: 272.7624 deg Eccentricity: 0.0014372 Arg of perigee: 165.9145 deg Mean anomaly: 194.2417 deg Mean motion: 14.11815591 rev/day Decay rate: -2.33e-06 rev/day^2 Epoch rev: 38243 Checksum: 311
Satellite: OKEAN-0 Catalog number: 25860 Epoch time: 06284.61273014 Element set: 0876 Inclination: 097.7334 deg RA of node: 293.5215 deg Eccentricity: 0.0001853 Arg of perigee: 085.5932 deg Mean anomaly: 274.5483 deg Mean motion: 14.73394656 rev/day Decay rate: 8.1e-07 rev/day^2 Epoch rev: 38889 Checksum: 332
Satellite: NOAA-16 Catalog number: 26536 Epoch time: 06285.46085174 Element set: 84 Inclination: 099.0836 deg RA of node: 253.5408 deg Eccentricity: 0.0010715 Arg of perigee: 147.0067 deg Mean anomaly: 213.1778 deg Mean motion: 14.12376513 rev/day Decay rate: 3.15e-06 rev/day^2 Epoch rev: 31213 Checksum: 289
Satellite: NOAA-17 Catalog number: 27453 Epoch time: 06285.31858202 Element set: 103 Inclination: 098.6114 deg RA of node: 355.1967 deg Eccentricity: 0.0012633 Arg of perigee: 095.5256 deg Mean anomaly: 264.7383 deg Mean motion: 14.23816759 rev/day Decay rate: 1.34e-06 rev/day^2 Epoch rev: 22344 Checksum: 307
Satellite: NOAA-18 Catalog number: 28654 Epoch time: 06285.35400772 Element set: 672 Inclination: 098.7982 deg RA of node: 226.1694 deg Eccentricity: 0.0013494 Arg of perigee: 250.8055 deg Mean anomaly: 109.1670 deg Mean motion: 14.10997332 rev/day Decay rate: -1.04e-06 rev/day^2 Epoch rev: 7190 Checksum: 313
/EX SB KEPS @ AMSAT $ORB06285.M Orbital Elements 06285.MISC
HR AMSAT ORBITAL ELEMENTS FOR MANNED AND MISCELLANEOUS SATELLITES FROM WA5QGD FORT WORTH,TX October 12, 2006 Send SUBSCRIBE KEPS/UNSUBSCRIBE KEPS to [email protected] only BID: ORB06285.M TO ALL RADIO AMATEURS BT
Satellite: HUBBLE Catalog number: 20580 Epoch time: 06284.59405361 Element set: 0732 Inclination: 028.4681 deg RA of node: 011.0095 deg Eccentricity: 0.0003502 Arg of perigee: 338.1279 deg Mean anomaly: 021.9165 deg Mean motion: 15.00107549 rev/day Decay rate: 4.78e-06 rev/day^2 Epoch rev: 70259 Checksum: 275
Satellite: UARS Catalog number: 21701 Epoch time: 06284.57634891 Element set: 0914 Inclination: 056.9761 deg RA of node: 310.3599 deg Eccentricity: 0.0106521 Arg of perigee: 074.3525 deg Mean anomaly: 286.9254 deg Mean motion: 15.44885635 rev/day Decay rate: 5.332e-05 rev/day^2 Epoch rev: 82728 Checksum: 326
Satellite: PO-34 Catalog number: 25520 Epoch time: 06284.81136653 Element set: 0611 Inclination: 028.4625 deg RA of node: 330.8717 deg Eccentricity: 0.0005668 Arg of perigee: 072.8075 deg Mean anomaly: 287.3127 deg Mean motion: 15.16809566 rev/day Decay rate: 6.38e-06 rev/day^2 Epoch rev: 43977 Checksum: 326
Satellite: ISS Catalog number: 25544 Epoch time: 06285.77548611 Element set: 848 Inclination: 051.6352 deg RA of node: 301.6716 deg Eccentricity: 0.0013196 Arg of perigee: 089.1934 deg Mean anomaly: 247.5183 deg Mean motion: 15.76838100 rev/day Decay rate: 6.008e-05 rev/day^2 Epoch rev: 45170 Checksum: 308
Satellite: OO-38 Catalog number: 26063 Epoch time: 06284.67019170 Element set: 0740 Inclination: 100.1968 deg RA of node: 236.7176 deg Eccentricity: 0.0037111 Arg of perigee: 138.8736 deg Mean anomaly: 221.5252 deg Mean motion: 14.35779770 rev/day Decay rate: -1.0e-08 rev/day^2 Epoch rev: 35139 Checksum: 300
Satellite: NO-45 Catalog number: 26932 Epoch time: 06285.76419609 Element set: 431 Inclination: 067.0514 deg RA of node: 064.5461 deg Eccentricity: 0.0005820 Arg of perigee: 233.2780 deg Mean anomaly: 126.7783 deg Mean motion: 14.29536604 rev/day Decay rate: -7.0e-07 rev/day^2 Epoch rev: 26277 Checksum: 308
Satellite: UWE-1 Catalog number: 28892 Epoch time: 06285.64478212 Element set: 574 Inclination: 098.1479 deg RA of node: 181.8718 deg Eccentricity: 0.0017494 Arg of perigee: 161.7800 deg Mean anomaly: 198.4014 deg Mean motion: 14.59405190 rev/day Decay rate: 1.51e-06 rev/day^2 Epoch rev: 5110 Checksum: 310
Satellite: CO-58 Catalog number: 28895 Epoch time: 06284.67198047 Element set: 0558 Inclination: 098.1487 deg RA of node: 181.0374 deg Eccentricity: 0.0017909 Arg of perigee: 165.0252 deg Mean anomaly: 195.1462 deg Mean motion: 14.59454716 rev/day Decay rate: 1.59e-06 rev/day^2 Epoch rev: 05084 Checksum: 349
Satellite: NCUBE2 Catalog number: 28897 Epoch time: 06283.26579192 Element set: 0132 Inclination: 098.1511 deg RA of node: 179.6330 deg Eccentricity: 0.0017095 Arg of perigee: 170.4767 deg Mean anomaly: 189.6751 deg Mean motion: 14.59610850 rev/day Decay rate: 1.70e-06 rev/day^2 Epoch rev: 04291 Checksum: 319
/EX